Language: 


Des rapports , des résumés tant et plus, au choix de chacun....


Données statistiques de la station
Quotidien Rapport Décembre 19, 2017 Unités:  Métrique    Anglais   les deux
« Précédent Jour
Suivant Jour »
Quotidien Hebdomadaire Mensuel Annuel Actuel
  Haut: Bas: Moyen:
Température: -17.8 °C -17.2 °C -15.6 °C
Pt de rosée: -17.8 °C -17.2 °C -15.5 °C
Humidité: Humidity % 95 % 98 %
Vitesse du vent: 0 km/h 0 km/h 4.8 km/h
Rafales: 0 km/h - -
Vent:- - WSW
Pression: 0 hPa 34909.7 hPa -
Précipitation: 0 mm    
Historical Graphs
 
 
Données statistiques pour Décembre 19, 2017
Heure Température Point de rosée Pression Vent Vitesse du vent Refales Humidité Pluie (taux horaire)
-17.8 °C -17.8 °C 0 hPa Calm     Humidity % 0 mm
00:01 -16.3 °C -16.1 °C 34909.7 hPa Calm   5.1 km/h 97 % 0 mm
00:02 -16.4 °C -16.7 °C 34909.7 hPa Calm   5.1 km/h 97 % 0 mm
00:07 -16.5 °C -16.7 °C 34909.7 hPa Calm   6.9 km/h 97 % 0 mm
00:10 -16.6 °C -16.7 °C 34909.7 hPa Calm   6.9 km/h 98 % 0 mm
00:16 -16.7 °C -16.7 °C 34909.7 hPa Calm   6.9 km/h 98 % 0 mm
00:19 -16.8 °C -16.7 °C 34909.7 hPa Calm   6.9 km/h 98 % 0 mm
00:24 -16.7 °C -16.7 °C 34909.7 hPa Calm   8.9 km/h 98 % 0 mm
00:29 -16.8 °C -16.7 °C 34909.7 hPa Calm   8 km/h 98 % 0 mm
00:35 -16.7 °C -16.7 °C 34909.7 hPa Calm   7.6 km/h 98 % 0 mm
00:38 -16.7 °C -16.7 °C 34909.7 hPa West 8.9 km/h 11.6 km/h 98 % 0 mm
00:43 -16.7 °C -16.7 °C 34909.7 hPa Calm   11.6 km/h 98 % 0 mm
00:46 -16.7 °C -16.7 °C 34909.7 hPa Calm   11.6 km/h 98 % 0 mm
00:51 -16.6 °C -16.7 °C 34909.7 hPa Calm   9.3 km/h 98 % 0 mm
00:57 -16.6 °C -16.7 °C 34909.7 hPa WNW 4.2 km/h 9.3 km/h 98 % 0 mm
00:58 -16.6 °C -16.7 °C 34909.7 hPa Calm   6.4 km/h 98 % 0 mm
01:03 -16.7 °C -16.7 °C 34909.7 hPa Calm   5.1 km/h 98 % 0 mm
01:08 -16.8 °C -16.7 °C 34909.7 hPa Calm   5.6 km/h 98 % 0 mm
01:09 -16.8 °C -16.7 °C 34909.7 hPa Calm   5.6 km/h 98 % 0 mm
01:14 -16.8 °C -16.7 °C 34909.7 hPa WNW 2.3 km/h 5.1 km/h 98 % 0 mm
01:15 -16.8 °C -16.7 °C 34909.7 hPa Calm   5.6 km/h 98 % 0 mm
01:20 -16.7 °C -16.7 °C 34909.7 hPa Calm   5.6 km/h 98 % 0 mm
01:22 -16.7 °C -16.7 °C 34909.7 hPa Calm   5.6 km/h 98 % 0 mm
01:26 -16.7 °C -16.7 °C 34909.7 hPa Calm     98 % 0 mm
01:27 -16.6 °C -16.7 °C 34909.7 hPa Calm     98 % 0 mm
01:32 -16.6 °C -16.7 °C 34909.7 hPa Calm   2.3 km/h 98 % 0 mm
01:35 -16.6 °C -16.7 °C 34909.7 hPa Calm   8.9 km/h 98 % 0 mm
01:40 -16.7 °C -16.7 °C 34909.7 hPa Calm   8.9 km/h 98 % 0 mm
01:44 -16.7 °C -16.7 °C 34909.7 hPa Calm   5.6 km/h 98 % 0 mm
01:49 -16.8 °C -16.7 °C 34909.7 hPa WNW 4.2 km/h 4.2 km/h 98 % 0 mm
01:54 -16.8 °C -16.7 °C 34909.7 hPa Calm   7.6 km/h 98 % 0 mm
01:55 -16.8 °C -16.7 °C 34909.7 hPa Calm   7.6 km/h 98 % 0 mm
02:00 -16.8 °C -16.7 °C 34909.7 hPa Calm   7.6 km/h 98 % 0 mm
02:06 -16.7 °C -16.7 °C 34909.7 hPa Calm     98 % 0 mm
02:11 -16.6 °C -16.7 °C 34946.9 hPa Calm     98 % 0 mm
02:12 -16.6 °C -16.7 °C 34946.9 hPa Calm     98 % 0 mm
02:16 -16.5 °C -16.1 °C 34946.9 hPa Calm     98 % 0 mm
02:18 -16.5 °C -16.1 °C 34946.9 hPa Calm     98 % 0 mm
02:22 -16.4 °C -16.1 °C 34946.9 hPa Calm     98 % 0 mm
02:23 -16.4 °C -16.1 °C 34946.9 hPa Calm   6.4 km/h 98 % 0 mm
02:28 -16.4 °C -16.1 °C 34909.7 hPa Calm   6.4 km/h 98 % 0 mm
02:29 -16.4 °C -16.1 °C 34909.7 hPa Calm   6.4 km/h 98 % 0 mm
02:34 -16.4 °C -16.1 °C 34909.7 hPa Calm   12.2 km/h 98 % 0 mm
02:36 -16.4 °C -16.1 °C 34909.7 hPa Calm   12.2 km/h 98 % 0 mm
02:38 -16.3 °C -16.1 °C 34909.7 hPa Calm   12.2 km/h 98 % 0 mm
02:43 -16.3 °C -16.1 °C 34909.7 hPa Calm   2.9 km/h 98 % 0 mm
02:44 -16.3 °C -16.1 °C 34909.7 hPa Calm   2.9 km/h 98 % 0 mm
02:49 -16.3 °C -16.1 °C 34909.7 hPa Calm   5.6 km/h 98 % 0 mm
02:54 -16.4 °C -16.1 °C 34909.7 hPa Calm   5.6 km/h 98 % 0 mm
02:57 -16.4 °C -16.1 °C 34946.9 hPa Calm   5.6 km/h 98 % 0 mm
03:02 -16.5 °C -16.1 °C 34946.9 hPa West 3.4 km/h 6.4 km/h 98 % 0 mm
03:03 -16.6 °C -16.7 °C 34946.9 hPa Calm   6.4 km/h 98 % 0 mm
03:08 -16.7 °C -16.7 °C 34946.9 hPa Calm   6.4 km/h 98 % 0 mm
03:10 -16.7 °C -16.7 °C 34946.9 hPa Calm   6.4 km/h 98 % 0 mm
03:15 -16.8 °C -16.7 °C 34946.9 hPa Calm   2.3 km/h 98 % 0 mm
03:18 -16.8 °C -16.7 °C 34946.9 hPa Calm     98 % 0 mm
03:23 -16.8 °C -16.7 °C 34946.9 hPa Calm     98 % 0 mm
03:25 -16.9 °C -16.7 °C 34946.9 hPa Calm     98 % 0 mm
03:30 -16.9 °C -16.7 °C 34946.9 hPa Calm     98 % 0 mm
03:35 -17 °C -17.2 °C 34946.9 hPa Calm     98 % 0 mm
03:36 -17.1 °C -17.2 °C 34946.9 hPa Calm     98 % 0 mm
03:37 -17.1 °C -17.2 °C 34946.9 hPa Calm     98 % 0 mm
03:42 -17 °C -17.2 °C 34946.9 hPa Calm     98 % 0 mm
03:43 -17 °C -17.2 °C 34946.9 hPa Calm     98 % 0 mm
03:46 -17 °C -17.2 °C 34946.9 hPa Calm     98 % 0 mm
03:50 -17.1 °C -17.2 °C 34946.9 hPa Calm     98 % 0 mm
03:55 -17.2 °C -17.2 °C 34946.9 hPa Calm     98 % 0 mm
03:58 -17.2 °C -17.2 °C 34946.9 hPa Calm     98 % 0 mm
04:01 -17.2 °C -17.2 °C 34946.9 hPa Calm     98 % 0 mm
04:06 -17.2 °C -17.2 °C 34946.9 hPa Calm     98 % 0 mm
04:09 -17.2 °C -17.2 °C 34946.9 hPa Calm     98 % 0 mm
04:15 -17.2 °C -17.2 °C 34946.9 hPa Calm     98 % 0 mm
04:17 -17.2 °C -17.2 °C 34946.9 hPa Calm     98 % 0 mm
04:19 -17.2 °C -17.2 °C 34946.9 hPa Calm     98 % 0 mm
04:24 -17.1 °C -17.2 °C 34946.9 hPa Calm     98 % 0 mm
04:30 -17.1 °C -17.2 °C 34946.9 hPa Calm     98 % 0 mm
04:36 -17.1 °C -17.2 °C 34946.9 hPa Calm     98 % 0 mm
04:42 -17.1 °C -17.2 °C 34946.9 hPa Calm     98 % 0 mm
04:43 -17.1 °C -17.2 °C 34946.9 hPa Calm     98 % 0 mm
04:45 -17.1 °C -17.2 °C 34946.9 hPa Calm     98 % 0 mm
04:50 -17.1 °C -17.2 °C 34946.9 hPa Calm     98 % 0 mm
04:52 -17.1 °C -17.2 °C 34946.9 hPa Calm     98 % 0 mm
04:57 -17 °C -17.2 °C 34980.8 hPa Calm     98 % 0 mm
05:02 -16.9 °C -16.7 °C 34980.8 hPa Calm     98 % 0 mm
05:05 -16.9 °C -16.7 °C 34980.8 hPa Calm     98 % 0 mm
05:07 -16.9 °C -16.7 °C 34980.8 hPa Calm     98 % 0 mm
05:11 -16.9 °C -16.7 °C 34980.8 hPa Calm     98 % 0 mm
05:12 -16.9 °C -16.7 °C 34980.8 hPa Calm     98 % 0 mm
05:17 -16.9 °C -16.7 °C 34980.8 hPa Calm     98 % 0 mm
05:20 -16.9 °C -16.7 °C 34980.8 hPa Calm     98 % 0 mm
05:21 -16.9 °C -16.7 °C 34980.8 hPa Calm     98 % 0 mm
05:26 -16.9 °C -16.7 °C 34980.8 hPa Calm     98 % 0 mm
05:31 -16.9 °C -16.7 °C 34980.8 hPa Calm     98 % 0 mm
05:32 -16.9 °C -16.7 °C 34980.8 hPa Calm     98 % 0 mm
05:37 -16.9 °C -16.7 °C 34980.8 hPa Calm     98 % 0 mm
05:41 -16.9 °C -16.7 °C 34980.8 hPa Calm     98 % 0 mm
05:46 -16.9 °C -16.7 °C 34980.8 hPa Calm     98 % 0 mm
05:47 -16.9 °C -16.7 °C 34980.8 hPa Calm     98 % 0 mm
05:52 -16.9 °C -16.7 °C 34980.8 hPa Calm     98 % 0 mm
05:53 -16.9 °C -16.7 °C 34980.8 hPa Calm     98 % 0 mm
05:58 -17 °C -17.2 °C 34946.9 hPa Calm     98 % 0 mm
06:01 -17 °C -17.2 °C 34946.9 hPa Calm     98 % 0 mm
06:06 -17.1 °C -17.2 °C 34946.9 hPa Calm     98 % 0 mm
06:10 -17.1 °C -17.2 °C 34946.9 hPa Calm     98 % 0 mm
06:12 -17.1 °C -17.2 °C 34980.8 hPa Calm     98 % 0 mm
06:17 -17.1 °C -17.2 °C 34980.8 hPa Calm     98 % 0 mm
06:19 -17.1 °C -17.2 °C 34980.8 hPa Calm     98 % 0 mm
06:24 -17.1 °C -17.2 °C 34980.8 hPa Calm   2.9 km/h 98 % 0 mm
06:28 -17.1 °C -17.2 °C 34980.8 hPa Calm   8 km/h 98 % 0 mm
06:32 -17 °C -17.2 °C 34980.8 hPa West 9.3 km/h 9.3 km/h 98 % 0 mm
06:37 -16.9 °C -16.7 °C 34980.8 hPa Calm   9.3 km/h 98 % 0 mm
06:42 -16.8 °C -16.7 °C 34980.8 hPa Calm   12.2 km/h 98 % 0 mm
06:43 -16.8 °C -16.7 °C 34980.8 hPa West 6.9 km/h 12.2 km/h 98 % 0 mm
06:48 -16.7 °C -16.7 °C 34980.8 hPa WSW 12.2 km/h 12.2 km/h 98 % 0 mm
06:53 -16.6 °C -16.7 °C 34980.8 hPa Calm   12.2 km/h 98 % 0 mm
06:54 -16.6 °C -16.7 °C 34980.8 hPa WSW 9.3 km/h 12.2 km/h 98 % 0 mm
06:59 -16.6 °C -16.7 °C 34980.8 hPa WSW 10.3 km/h 14.5 km/h 98 % 0 mm
07:00 -16.5 °C -16.1 °C 34980.8 hPa West 8.9 km/h 14.5 km/h 98 % 0 mm
07:05 -16.4 °C -16.1 °C 34980.8 hPa WSW 12.7 km/h 14.5 km/h 98 % 0 mm
07:06 -16.4 °C -16.1 °C 34980.8 hPa WSW 16.3 km/h 16.3 km/h 98 % 0 mm
07:11 -16.3 °C -16.1 °C 34980.8 hPa WSW 9.8 km/h 16.3 km/h 98 % 0 mm
07:15 -16.3 °C -16.1 °C 34980.8 hPa WSW 16.3 km/h 16.3 km/h 98 % 0 mm
07:20 -16.3 °C -16.1 °C 34980.8 hPa West 8.9 km/h 16.3 km/h 98 % 0 mm
07:23 -16.3 °C -16.1 °C 34980.8 hPa West 12.7 km/h 16.3 km/h 98 % 0 mm
07:24 -16.2 °C -16.1 °C 34980.8 hPa West 6.9 km/h 16.3 km/h 98 % 0 mm
07:29 -16.2 °C -16.1 °C 35014.6 hPa West 11.1 km/h 15.6 km/h 98 % 0 mm
07:34 -16.2 °C -16.1 °C 35014.6 hPa SW 11.1 km/h 16.9 km/h 98 % 0 mm
07:39 -16.2 °C -16.1 °C 35014.6 hPa West 10.3 km/h 16.9 km/h 98 % 0 mm
07:40 -16.2 °C -16.1 °C 34980.8 hPa WSW 10.3 km/h 16.9 km/h 98 % 0 mm
07:44 -16.3 °C -16.1 °C 34980.8 hPa WSW 14.5 km/h 15 km/h 98 % 0 mm
07:46 -16.3 °C -16.1 °C 34980.8 hPa WSW 14 km/h 16.9 km/h 98 % 0 mm
07:51 -16.3 °C -16.1 °C 34980.8 hPa WSW 16.3 km/h 18.7 km/h 98 % 0 mm
07:55 -16.3 °C -16.1 °C 34980.8 hPa WSW 15 km/h 22 km/h 98 % 0 mm
07:58 -16.3 °C -16.1 °C 34980.8 hPa WSW 12.7 km/h 22 km/h 98 % 0 mm
08:02 -16.3 °C -16.1 °C 34980.8 hPa WSW 15 km/h 16.9 km/h 98 % 0 mm
08:03 -16.4 °C -16.1 °C 34980.8 hPa WSW 14 km/h 16.9 km/h 98 % 0 mm
08:08 -16.4 °C -16.1 °C 34980.8 hPa WSW 12.2 km/h 16.9 km/h 98 % 0 mm
08:09 -16.4 °C -16.1 °C 34980.8 hPa WSW 10.3 km/h 16.9 km/h 98 % 0 mm
08:13 -16.4 °C -16.1 °C 35014.6 hPa WSW 15.6 km/h 16.9 km/h 98 % 0 mm
08:18 -16.4 °C -16.1 °C 35014.6 hPa WSW 10.3 km/h 15.6 km/h 98 % 0 mm
08:23 -16.4 °C -16.1 °C 35014.6 hPa West 12.7 km/h 18.7 km/h 98 % 0 mm
08:26 -16.4 °C -16.1 °C 35014.6 hPa WSW 11.1 km/h 18.7 km/h 98 % 0 mm
08:30 -16.4 °C -16.1 °C 35014.6 hPa WSW 11.6 km/h 18.7 km/h 98 % 0 mm
08:34 -16.4 °C -16.1 °C 35014.6 hPa WSW 14.5 km/h 16.3 km/h 98 % 0 mm
08:39 -16.4 °C -16.1 °C 35014.6 hPa WSW 12.7 km/h 14.5 km/h 98 % 0 mm
08:42 -16.5 °C -16.1 °C 35014.6 hPa West 6.9 km/h 14.5 km/h 98 % 0 mm
08:45 -16.5 °C -16.1 °C 35014.6 hPa West 8 km/h 14.5 km/h 98 % 0 mm
08:47 -16.5 °C -16.1 °C 35014.6 hPa Calm   14.5 km/h 98 % 0 mm
08:52 -16.5 °C -16.1 °C 35014.6 hPa West 8.9 km/h 10.3 km/h 98 % 0 mm
08:54 -16.5 °C -16.1 °C 35014.6 hPa Calm   10.3 km/h 98 % 0 mm
08:59 -16.5 °C -16.1 °C 35014.6 hPa Calm   9.8 km/h 98 % 0 mm
09:03 -16.5 °C -16.1 °C 35014.6 hPa Calm   8 km/h 98 % 0 mm
09:06 -16.5 °C -16.1 °C 35014.6 hPa Calm     98 % 0 mm
09:10 -16.4 °C -16.1 °C 35014.6 hPa Calm     98 % 0 mm
09:12 -16.5 °C -16.1 °C 35048.5 hPa SSW 8.9 km/h 8.9 km/h 98 % 0 mm
09:17 -16.5 °C -16.1 °C 35048.5 hPa Calm   8.9 km/h 98 % 0 mm
09:19 -16.5 °C -16.1 °C 35048.5 hPa Calm   8.9 km/h 98 % 0 mm
09:24 -16.5 °C -16.1 °C 35048.5 hPa Calm     98 % 0 mm
09:27 -16.5 °C -16.1 °C 35014.6 hPa Calm     98 % 0 mm
09:32 -16.5 °C -16.1 °C 35014.6 hPa Calm     98 % 0 mm
09:37 -16.4 °C -16.1 °C 35014.6 hPa Calm     98 % 0 mm
09:38 -16.4 °C -16.1 °C 35014.6 hPa Calm     98 % 0 mm
09:43 -16.5 °C -16.1 °C 35048.5 hPa WSW 11.1 km/h 14 km/h 98 % 0 mm
09:48 -16.5 °C -16.1 °C 35048.5 hPa WSW 9.8 km/h 14 km/h 98 % 0 mm
09:51 -16.5 °C -16.1 °C 35048.5 hPa WSW 9.8 km/h 14 km/h 98 % 0 mm
09:56 -16.5 °C -16.1 °C 35048.5 hPa Calm   12.2 km/h 98 % 0 mm
09:57 -16.4 °C -16.1 °C 35048.5 hPa Calm   9.8 km/h 98 % 0 mm
10:02 -16.4 °C -16.1 °C 35048.5 hPa West 7.6 km/h 9.8 km/h 98 % 0 mm
10:03 -16.4 °C -16.1 °C 35048.5 hPa West 7.6 km/h 9.8 km/h 98 % 0 mm
10:08 -16.5 °C -16.1 °C 35048.5 hPa WSW 12.2 km/h 14.5 km/h 98 % 0 mm
10:11 -16.5 °C -16.1 °C 35048.5 hPa WSW 9.8 km/h 14.5 km/h 98 % 0 mm
10:16 -16.5 °C -16.1 °C 35048.5 hPa WSW 9.8 km/h 15 km/h 98 % 0 mm
10:21 -16.5 °C -16.1 °C 35048.5 hPa WSW 10.3 km/h 15 km/h 98 % 0 mm
10:27 -16.5 °C -16.1 °C 35048.5 hPa WSW 11.6 km/h 14 km/h 98 % 0 mm
10:32 -16.5 °C -16.1 °C 35048.5 hPa West 9.3 km/h 15 km/h 98 % 0 mm
10:33 -16.5 °C -16.1 °C 35048.5 hPa West 7.6 km/h 15 km/h 98 % 0 mm
10:38 -16.4 °C -16.1 °C 35048.5 hPa Calm   15 km/h 98 % 0 mm
10:43 -16.4 °C -16.1 °C 35014.6 hPa Calm   12.7 km/h 98 % 0 mm
10:44 -16.4 °C -16.1 °C 35014.6 hPa SW 8 km/h 9.3 km/h 98 % 0 mm
10:45 -16.4 °C -16.1 °C 35014.6 hPa Calm   9.3 km/h 98 % 0 mm
10:50 -16.3 °C -16.1 °C 35014.6 hPa Calm   8.9 km/h 98 % 0 mm
10:51 -16.3 °C -16.1 °C 35014.6 hPa WSW 10.3 km/h 12.2 km/h 98 % 0 mm
11:00 -16.3 °C -16.1 °C 35048.5 hPa Calm   12.7 km/h 98 % 0 mm
11:03 -16.3 °C -16.1 °C 35048.5 hPa WSW 11.1 km/h 14.5 km/h 98 % 0 mm
11:05 -16.3 °C -16.1 °C 35048.5 hPa WSW 10.3 km/h 14.5 km/h 98 % 0 mm
11:10 -16.2 °C -16.1 °C 35048.5 hPa WSW 11.1 km/h 14.5 km/h 98 % 0 mm
11:12 -16.2 °C -16.1 °C 35048.5 hPa WSW 12.2 km/h 14.5 km/h 98 % 0 mm
11:13 -16.2 °C -16.1 °C 35048.5 hPa Calm   12.2 km/h 98 % 0 mm
11:18 -16.2 °C -16.1 °C 35048.5 hPa WSW 4.2 km/h 14 km/h 98 % 0 mm
11:20 -16.2 °C -16.1 °C 35048.5 hPa WSW 14 km/h 14.5 km/h 98 % 0 mm
11:24 -16.2 °C -16.1 °C 35048.5 hPa Calm   15 km/h 98 % 0 mm
11:29 -16.2 °C -16.1 °C 35014.6 hPa Calm   15 km/h 98 % 0 mm
11:34 -16.1 °C -16.1 °C 35014.6 hPa Calm   11.1 km/h 98 % 0 mm
11:37 -15.9 °C -16.1 °C 35014.6 hPa Calm     98 % 0 mm
11:39 -15.9 °C -16.1 °C 35014.6 hPa Calm     98 % 0 mm
11:44 -15.7 °C -15.6 °C 35048.5 hPa Calm     98 % 0 mm
11:46 -15.7 °C -15.6 °C 35048.5 hPa Calm     98 % 0 mm
11:47 -15.7 °C -15.6 °C 35048.5 hPa Calm     98 % 0 mm
11:56 -15.4 °C -15.6 °C 35048.5 hPa Calm   9.3 km/h 98 % 0 mm
12:01 -15.2 °C -15 °C 35048.5 hPa Calm   10.3 km/h 98 % 0 mm
12:02 -15.2 °C -15 °C 35048.5 hPa Calm   10.3 km/h 98 % 0 mm
12:08 -15.1 °C -15 °C 35048.5 hPa WSW 8.9 km/h 10.3 km/h 98 % 0 mm
12:28 -14.8 °C -14.4 °C 35048.5 hPa WSW 11.1 km/h 11.1 km/h 98 % 0 mm
12:31 -14.7 °C -14.4 °C 35048.5 hPa Calm   11.1 km/h 98 % 0 mm
12:32 -14.7 °C -14.4 °C 35048.5 hPa WSW 8 km/h 11.1 km/h 98 % 0 mm
12:37 -14.6 °C -14.4 °C 35048.5 hPa West 15 km/h 15 km/h 98 % 0 mm
12:39 -14.6 °C -14.4 °C 35048.5 hPa WSW 2.9 km/h 15 km/h 98 % 0 mm
12:44 -14.2 °C -14.4 °C 35048.5 hPa WSW 9.8 km/h 15 km/h 98 % 0 mm
12:45 -14.2 °C -13.9 °C 35048.5 hPa SW 9.8 km/h 15 km/h 98 % 0 mm
12:50 -14.1 °C -13.9 °C 35048.5 hPa Calm   14.5 km/h 98 % 0 mm
12:51 -14.1 °C -13.9 °C 35048.5 hPa Calm   14.5 km/h 98 % 0 mm
12:55 -14.1 °C -13.9 °C 35048.5 hPa WSW 9.8 km/h 14.5 km/h 98 % 0 mm
12:57 -14 °C -13.9 °C 35048.5 hPa WSW 15 km/h 15.6 km/h 98 % 0 mm
13:01 -14.1 °C -13.9 °C 35048.5 hPa Calm   15.6 km/h 98 % 0 mm
13:06 -14.1 °C -13.9 °C 35048.5 hPa WSW 14 km/h 15.6 km/h 98 % 0 mm
13:07 -14.1 °C -13.9 °C 35048.5 hPa WSW 14 km/h 15.6 km/h 98 % 0 mm
13:12 -14 °C -13.9 °C 35048.5 hPa WSW 9.8 km/h 15 km/h 98 % 0 mm
13:13 -14 °C -13.9 °C 35048.5 hPa WSW 11.1 km/h 15 km/h 98 % 0 mm
13:18 -13.8 °C -13.9 °C 35048.5 hPa West 9.8 km/h 15 km/h 98 % 0 mm
13:23 -13.6 °C -13.3 °C 35048.5 hPa WSW 15 km/h 15 km/h 98 % 0 mm
13:25 -13.5 °C -13.3 °C 35048.5 hPa SW 9.3 km/h 15.6 km/h 98 % 0 mm
13:28 -13.4 °C -13.3 °C 35014.6 hPa WSW 9.8 km/h 16.3 km/h 98 % 0 mm
13:33 -13.4 °C -13.3 °C 35014.6 hPa WSW 11.1 km/h 16.9 km/h 98 % 0 mm
13:38 -13.4 °C -13.3 °C 35014.6 hPa West 12.7 km/h 17.9 km/h 98 % 0 mm
13:39 -13.4 °C -13.3 °C 35014.6 hPa West 14.5 km/h 17.9 km/h 98 % 0 mm
13:41 -13.4 °C -13.3 °C 35014.6 hPa WSW 14.5 km/h 19.2 km/h 98 % 0 mm
13:47 -13.4 °C -13.3 °C 35014.6 hPa WSW 12.7 km/h 19.2 km/h 98 % 0 mm
13:48 -13.4 °C -13.3 °C 35014.6 hPa WSW 11.6 km/h 19.2 km/h 98 % 0 mm
13:53 -13.3 °C -13.3 °C 35014.6 hPa WSW 14 km/h 20.3 km/h 98 % 0 mm
13:54 -13.3 °C -13.3 °C 35014.6 hPa WSW 15.6 km/h 20.3 km/h 98 % 0 mm
13:59 -13.2 °C -13.3 °C 35014.6 hPa WSW 16.9 km/h 20.3 km/h 98 % 0 mm
14:03 -13.2 °C -12.8 °C 35014.6 hPa WSW 15 km/h 19.6 km/h 98 % 0 mm
14:08 -13.1 °C -12.8 °C 35014.6 hPa WSW 15.6 km/h 19.6 km/h 98 % 0 mm
14:14 -13 °C -12.8 °C 35014.6 hPa WSW 12.7 km/h 19.6 km/h 98 % 0 mm
14:16 -13 °C -12.8 °C 35014.6 hPa WSW 14.5 km/h 19.6 km/h 98 % 0 mm
14:21 -12.9 °C -12.8 °C 35014.6 hPa WSW 15 km/h 18.7 km/h 98 % 0 mm
14:26 -12.8 °C -12.8 °C 35014.6 hPa WSW 14.5 km/h 19.2 km/h 98 % 0 mm
14:27 -12.8 °C -12.8 °C 35014.6 hPa WSW 10.3 km/h 19.2 km/h 98 % 0 mm
14:31 -12.8 °C -12.8 °C 35014.6 hPa WSW 14 km/h 19.2 km/h 98 % 0 mm
14:36 -12.8 °C -12.8 °C 35014.6 hPa WSW 14 km/h 16.9 km/h 98 % 0 mm
14:41 -12.9 °C -12.8 °C 35014.6 hPa West 18.7 km/h 25.4 km/h 98 % 0 mm
14:42 -12.9 °C -12.8 °C 35014.6 hPa WSW 19.6 km/h 25.4 km/h 98 % 0 mm
14:47 -12.9 °C -12.8 °C 35014.6 hPa West 16.9 km/h 25.4 km/h 98 % 0 mm
14:48 -12.9 °C -12.8 °C 35014.6 hPa West 19.2 km/h 25.4 km/h 98 % 0 mm
14:53 -12.9 °C -12.8 °C 35014.6 hPa WSW 20.9 km/h 23 km/h 98 % 0 mm
14:58 -12.9 °C -12.8 °C 34980.8 hPa WSW 20.9 km/h 23 km/h 98 % 0 mm
15:04 -13 °C -12.8 °C 34980.8 hPa WSW 14.5 km/h 23 km/h 97 % 0 mm
15:05 -13 °C -12.8 °C 34980.8 hPa WSW 22.5 km/h 23 km/h 97 % 0 mm
15:06 -13.1 °C -12.8 °C 34980.8 hPa WSW 18.7 km/h 22.5 km/h 97 % 0 mm
15:11 -13.1 °C -13.3 °C 34980.8 hPa WSW 16.9 km/h 22.5 km/h 96 % 0 mm
15:14 -13.2 °C -13.3 °C 34980.8 hPa West 15 km/h 22.5 km/h 96 % 0 mm
15:15 -13.2 °C -13.3 °C 34980.8 hPa WSW 15 km/h 22.5 km/h 96 % 0 mm
15:20 -13.2 °C -13.3 °C 34980.8 hPa WSW 20.3 km/h 25.4 km/h 95 % 0 mm
15:21 -13.3 °C -13.3 °C 34980.8 hPa WSW 19.6 km/h 25.4 km/h 95 % 0 mm
15:23 -13.3 °C -13.3 °C 34980.8 hPa WSW 16.9 km/h 25.4 km/h 95 % 0 mm
15:26 -13.3 °C -13.3 °C 34980.8 hPa WSW 20.9 km/h 23.8 km/h 95 % 0 mm
15:31 -13.3 °C -13.3 °C 34980.8 hPa West 16.9 km/h 23.8 km/h 95 % 0 mm
15:36 -13.3 °C -13.3 °C 34980.8 hPa WSW 14 km/h 23 km/h 95 % 0 mm
15:38 -13.3 °C -13.3 °C 34980.8 hPa West 16.9 km/h 22.5 km/h 95 % 0 mm
15:43 -13.3 °C -13.3 °C 34980.8 hPa WSW 15 km/h 22.5 km/h 95 % 0 mm
15:45 -13.4 °C -13.3 °C 34980.8 hPa West 15 km/h 22.5 km/h 96 % 0 mm
15:50 -13.5 °C -13.9 °C 34980.8 hPa WSW 15.6 km/h 22.5 km/h 96 % 0 mm
15:52 -13.6 °C -13.9 °C 34980.8 hPa WSW 19.2 km/h 22.5 km/h 95 % 0 mm
15:57 -13.7 °C -13.9 °C 34980.8 hPa WSW 18.7 km/h 22 km/h 96 % 0 mm
15:58 -13.7 °C -13.9 °C 34980.8 hPa West 16.3 km/h 22 km/h 96 % 0 mm
16:01 -13.7 °C -13.9 °C 34980.8 hPa WSW 12.7 km/h 22 km/h 96 % 0 mm
16:06 -13.8 °C -13.9 °C 34980.8 hPa WSW 15.6 km/h 19.6 km/h 96 % 0 mm
16:07 -13.9 °C -13.9 °C 34980.8 hPa WSW 16.3 km/h 19.6 km/h 96 % 0 mm
16:12 -14 °C -14.4 °C 34980.8 hPa WSW 15.6 km/h 19.6 km/h 96 % 0 mm
16:14 -14 °C -14.4 °C 34980.8 hPa WSW 12.7 km/h 19.6 km/h 96 % 0 mm
16:17 -14.1 °C -14.4 °C 34980.8 hPa WSW 9.8 km/h 19.2 km/h 97 % 0 mm
16:21 -14.1 °C -14.4 °C 34980.8 hPa WSW 10.3 km/h 16.9 km/h 97 % 0 mm
16:24 -14.2 °C -14.4 °C 34980.8 hPa Calm   16.9 km/h 97 % 0 mm
16:29 -14.3 °C -14.4 °C 35014.6 hPa West 12.7 km/h 16.9 km/h 97 % 0 mm
16:30 -14.3 °C -14.4 °C 35014.6 hPa West 11.6 km/h 16.3 km/h 97 % 0 mm
16:34 -14.4 °C -14.4 °C 35014.6 hPa WSW 14.5 km/h 16.9 km/h 97 % 0 mm
16:39 -14.5 °C -14.4 °C 35014.6 hPa WSW 12.7 km/h 16.9 km/h 97 % 0 mm
16:40 -14.5 °C -14.4 °C 35014.6 hPa West 15.6 km/h 16.9 km/h 98 % 0 mm
16:44 -14.6 °C -14.4 °C 35014.6 hPa WSW 14.5 km/h 16.9 km/h 98 % 0 mm
16:47 -14.7 °C -14.4 °C 35014.6 hPa WSW 11.1 km/h 16.9 km/h 98 % 0 mm
16:49 -14.7 °C -14.4 °C 35014.6 hPa WSW 14 km/h 16.3 km/h 98 % 0 mm
16:53 -14.8 °C -14.4 °C 35014.6 hPa WSW 12.7 km/h 14.5 km/h 98 % 0 mm
16:58 -14.9 °C -15 °C 35014.6 hPa WSW 11.1 km/h 14.5 km/h 98 % 0 mm
17:01 -14.9 °C -15 °C 35014.6 hPa WSW 15 km/h 15 km/h 98 % 0 mm
17:06 -15 °C -15 °C 35014.6 hPa WSW 14 km/h 15 km/h 98 % 0 mm
17:11 -15.1 °C -15 °C 35014.6 hPa WSW 12.7 km/h 15 km/h 98 % 0 mm
17:16 -15.1 °C -15 °C 35014.6 hPa WSW 9.3 km/h 14.5 km/h 98 % 0 mm
17:21 -15.2 °C -15 °C 35014.6 hPa Calm   14.5 km/h 98 % 0 mm
17:22 -15.2 °C -15 °C 35014.6 hPa Calm   14.5 km/h 98 % 0 mm
17:29 -15.1 °C -15 °C 34980.8 hPa Calm   9.3 km/h 98 % 0 mm
17:34 -15.1 °C -15 °C 34980.8 hPa Calm     98 % 0 mm
17:39 -14.9 °C -15 °C 34980.8 hPa Calm   8.9 km/h 98 % 0 mm
17:41 -14.9 °C -15 °C 35014.6 hPa Calm   8.9 km/h 98 % 0 mm
17:46 -14.9 °C -15 °C 35014.6 hPa Calm   8.9 km/h 98 % 0 mm
17:47 -14.9 °C -15 °C 35014.6 hPa Calm     98 % 0 mm
17:50 -14.9 °C -15 °C 35014.6 hPa Calm     98 % 0 mm
17:53 -14.9 °C -15 °C 35014.6 hPa Calm     98 % 0 mm
17:56 -14.9 °C -15 °C 35014.6 hPa Calm     98 % 0 mm
17:59 -14.9 °C -15 °C 35014.6 hPa Calm     98 % 0 mm
18:02 -14.9 °C -15 °C 35014.6 hPa Calm     98 % 0 mm
18:04 -15 °C -15 °C 35014.6 hPa Calm     98 % 0 mm
18:09 -15.1 °C -15 °C 35014.6 hPa Calm     98 % 0 mm
18:10 -15.1 °C -15 °C 35014.6 hPa Calm     98 % 0 mm
18:16 -15.2 °C -15 °C 35014.6 hPa Calm     98 % 0 mm
18:17 -15.2 °C -15 °C 35014.6 hPa Calm     98 % 0 mm
18:22 -15.2 °C -15 °C 35014.6 hPa Calm     98 % 0 mm
18:27 -15.2 °C -15 °C 34980.8 hPa Calm     98 % 0 mm
18:28 -15.3 °C -15 °C 34980.8 hPa Calm     98 % 0 mm
18:33 -15.4 °C -15.6 °C 34980.8 hPa Calm     98 % 0 mm
18:35 -15.4 °C -15.6 °C 34980.8 hPa Calm     98 % 0 mm
18:40 -15.5 °C -15.6 °C 34980.8 hPa Calm   5.1 km/h 98 % 0 mm
18:41 -15.6 °C -15.6 °C 34980.8 hPa Calm   5.1 km/h 98 % 0 mm
18:46 -15.6 °C -15.6 °C 34980.8 hPa Calm   5.1 km/h 98 % 0 mm
18:51 -15.7 °C -15.6 °C 34980.8 hPa Calm     98 % 0 mm
18:53 -15.7 °C -15.6 °C 34980.8 hPa Calm     98 % 0 mm
18:58 -15.7 °C -15.6 °C 35014.6 hPa Calm     98 % 0 mm
19:03 -15.7 °C -15.6 °C 35014.6 hPa Calm     98 % 0 mm
19:08 -15.7 °C -15.6 °C 35014.6 hPa Calm     98 % 0 mm
19:13 -15.7 °C -15.6 °C 35014.6 hPa Calm     98 % 0 mm
19:17 -15.7 °C -15.6 °C 35014.6 hPa Calm     98 % 0 mm
19:22 -15.7 °C -15.6 °C 35014.6 hPa Calm     98 % 0 mm
19:24 -15.6 °C -15.6 °C 35014.6 hPa Calm     98 % 0 mm
19:28 -15.6 °C -15.6 °C 35014.6 hPa Calm     98 % 0 mm
19:32 -15.6 °C -15.6 °C 35014.6 hPa Calm   4.2 km/h 98 % 0 mm
19:37 -15.7 °C -15.6 °C 35014.6 hPa Calm   4.2 km/h 98 % 0 mm
19:41 -15.7 °C -15.6 °C 35014.6 hPa Calm   4.2 km/h 98 % 0 mm
19:46 -15.8 °C -15.6 °C 35014.6 hPa West 6.4 km/h 7.6 km/h 98 % 0 mm
19:48 -15.9 °C -16.1 °C 35014.6 hPa Calm   7.6 km/h 98 % 0 mm
19:53 -16.1 °C -16.1 °C 35014.6 hPa Calm   7.6 km/h 98 % 0 mm
19:54 -16.1 °C -16.1 °C 35014.6 hPa Calm   7.6 km/h 98 % 0 mm
19:59 -16.2 °C -16.1 °C 35014.6 hPa Calm     98 % 0 mm
20:01 -16.2 °C -16.1 °C 35014.6 hPa Calm     98 % 0 mm
20:06 -16.2 °C -16.1 °C 35014.6 hPa Calm     98 % 0 mm
20:11 -16.1 °C -16.1 °C 35014.6 hPa Calm   6.4 km/h 98 % 0 mm
20:13 -16.1 °C -16.1 °C 35014.6 hPa Calm   6.4 km/h 98 % 0 mm
20:18 -16.1 °C -16.1 °C 35014.6 hPa Calm     98 % 0 mm
20:23 -16 °C -16.1 °C 35014.6 hPa Calm     98 % 0 mm
20:25 -16 °C -16.1 °C 35014.6 hPa Calm     98 % 0 mm
20:30 -15.9 °C -16.1 °C 35014.6 hPa Calm     98 % 0 mm
20:32 -15.9 °C -16.1 °C 35014.6 hPa Calm     98 % 0 mm
20:37 -15.8 °C -15.6 °C 35014.6 hPa Calm     98 % 0 mm
20:38 -15.8 °C -15.6 °C 35014.6 hPa Calm     98 % 0 mm
20:39 -15.7 °C -15.6 °C 35014.6 hPa Calm     98 % 0 mm
20:44 -15.7 °C -15.6 °C 35014.6 hPa Calm     98 % 0 mm
20:48 -15.7 °C -15.6 °C 35014.6 hPa Calm     98 % 0 mm
20:50 -15.6 °C -15.6 °C 35014.6 hPa Calm     98 % 0 mm
20:55 -15.6 °C -15.6 °C 35014.6 hPa Calm     98 % 0 mm
21:00 -15.4 °C -15.6 °C 35014.6 hPa Calm   12.2 km/h 98 % 0 mm
21:03 -15.4 °C -15.6 °C 35014.6 hPa Calm   12.2 km/h 98 % 0 mm
21:08 -15.3 °C -15 °C 35014.6 hPa Calm   7.6 km/h 98 % 0 mm
21:09 -15.3 °C -15 °C 35014.6 hPa Calm   7.6 km/h 98 % 0 mm
21:14 -15.2 °C -15 °C 35014.6 hPa Calm   5.6 km/h 98 % 0 mm
21:18 -15.2 °C -15 °C 35014.6 hPa Calm     98 % 0 mm
21:23 -15.1 °C -15 °C 35014.6 hPa Calm     98 % 0 mm
21:25 -15.1 °C -15 °C 35014.6 hPa Calm     98 % 0 mm
21:30 -15.1 °C -15 °C 35014.6 hPa Calm     98 % 0 mm
21:32 -15.1 °C -15 °C 35014.6 hPa West 6.9 km/h 6.9 km/h 98 % 0 mm
21:35 -15.1 °C -15 °C 35014.6 hPa Calm   6.9 km/h 98 % 0 mm
21:40 -15 °C -15 °C 35014.6 hPa Calm   9.3 km/h 98 % 0 mm
21:43 -15 °C -15 °C 35014.6 hPa West 14 km/h 14 km/h 98 % 0 mm
21:48 -14.9 °C -15 °C 35014.6 hPa Calm   14 km/h 98 % 0 mm
21:49 -14.9 °C -15 °C 35014.6 hPa Calm   14 km/h 98 % 0 mm
21:54 -14.9 °C -15 °C 35014.6 hPa Calm   12.7 km/h 98 % 0 mm
21:55 -14.9 °C -15 °C 35014.6 hPa Calm   12.2 km/h 98 % 0 mm
21:56 -14.9 °C -15 °C 35014.6 hPa West 8.9 km/h 11.1 km/h 98 % 0 mm
22:01 -14.8 °C -14.4 °C 35014.6 hPa Calm   10.3 km/h 98 % 0 mm
22:06 -14.8 °C -14.4 °C 35014.6 hPa Calm   8.9 km/h 98 % 0 mm
22:11 -14.8 °C -14.4 °C 35014.6 hPa Calm     98 % 0 mm
22:14 -14.8 °C -14.4 °C 35014.6 hPa Calm     98 % 0 mm
22:19 -14.8 °C -14.4 °C 35014.6 hPa Calm     98 % 0 mm
22:20 -14.8 °C -14.4 °C 35014.6 hPa Calm     98 % 0 mm
22:22 -14.8 °C -14.4 °C 35014.6 hPa Calm     98 % 0 mm
22:27 -14.8 °C -14.4 °C 35014.6 hPa Calm     98 % 0 mm
22:29 -14.8 °C -14.4 °C 35014.6 hPa Calm     98 % 0 mm
22:34 -14.8 °C -14.4 °C 35014.6 hPa Calm   5.1 km/h 98 % 0 mm
22:36 -14.8 °C -14.4 °C 35014.6 hPa Calm   5.1 km/h 98 % 0 mm
22:40 -14.8 °C -14.4 °C 35014.6 hPa Calm   8 km/h 98 % 0 mm
22:42 -14.8 °C -14.4 °C 35014.6 hPa Calm   8 km/h 98 % 0 mm
22:47 -14.7 °C -14.4 °C 35014.6 hPa Calm   8 km/h 98 % 0 mm
22:52 -14.7 °C -14.4 °C 35014.6 hPa Calm   8 km/h 98 % 0 mm
22:53 -14.7 °C -14.4 °C 35014.6 hPa Calm   8 km/h 98 % 0 mm
22:58 -14.7 °C -14.4 °C 35014.6 hPa Calm     98 % 0 mm
22:59 -14.7 °C -14.4 °C 35014.6 hPa Calm     98 % 0 mm
23:04 -14.7 °C -14.4 °C 35014.6 hPa West 10.3 km/h 10.3 km/h 98 % 0 mm
23:09 -14.6 °C -14.4 °C 35014.6 hPa WSW 6.9 km/h 10.3 km/h 98 % 0 mm
23:11 -14.6 °C -14.4 °C 35014.6 hPa West 9.3 km/h 12.2 km/h 98 % 0 mm
23:13 -14.6 °C -14.4 °C 35014.6 hPa WSW 6.4 km/h 12.2 km/h 98 % 0 mm
23:18 -14.6 °C -14.4 °C 35014.6 hPa Calm   12.2 km/h 98 % 0 mm
23:22 -14.6 °C -14.4 °C 35014.6 hPa Calm   11.1 km/h 98 % 0 mm
23:24 -14.6 °C -14.4 °C 35014.6 hPa Calm   11.1 km/h 98 % 0 mm
23:29 -14.6 °C -14.4 °C 34980.8 hPa Calm     98 % 0 mm
23:31 -14.6 °C -14.4 °C 34980.8 hPa Calm     98 % 0 mm
23:36 -14.5 °C -14.4 °C 34980.8 hPa West 6.9 km/h 6.9 km/h 98 % 0 mm
23:38 -14.5 °C -14.4 °C 34980.8 hPa WSW 12.2 km/h 12.2 km/h 98 % 0 mm
23:42 -14.4 °C -14.4 °C 34980.8 hPa Calm   12.2 km/h 98 % 0 mm
23:43 -14.4 °C -14.4 °C 34980.8 hPa Calm   12.2 km/h 98 % 0 mm
23:48 -14.4 °C -14.4 °C 34980.8 hPa Calm   6.4 km/h 98 % 0 mm
23:50 -14.4 °C -14.4 °C 34980.8 hPa West 10.3 km/h 10.3 km/h 98 % 0 mm
23:55 -14.3 °C -14.4 °C 35014.6 hPa West 8.9 km/h 14.5 km/h 98 % 0 mm
23:57 -14.3 °C -14.4 °C 35014.6 hPa West 9.3 km/h 15 km/h 98 % 0 mm
Le Gheer Warneton
Courtoisie de Weather Underground - 3 mb

Mise a jour : 25/02/2018 14:53:11
Généré par Cumulus 1.9.4 (1099)